カタログに戻る

INTELSAT 508

運用中通信GEO
NORAD 14786·PAYLOAD· XX

打ち上げ Mar 5, 1984 から Guiana Space Centre

Loading…

TLE

最新Source: Space-Track

元期: Sep 14, 2026, 03:15 UTC

1 14786U 84023A   26257.13545701 -.00000122  00000-0  00000-0 0  9997
2 14786  13.5481 337.2101 0019097 268.1839  95.9639  0.97292419 46835

AllMySatでINTELSAT 508をリアルタイム追跡

Download on the App Store